sat.trackr.live / text

‹ back to catalog

STARLINK-31865

NORAD 59791 · 2024-093K

PAYLOAD ACTIVE UNKNOWN

§ Identity

Operator
Country
US
Launch date
2024-05-18
Launch site
AFETR
Launch vehicle
Mass (kg)
RCS (m²)

Purposes: comms

External: N2YO · Heavens-Above · Gunter

§ Orbital elements

Epoch: 2026-05-25T01:00:35.855424Z

Period
94.27 min
Inclination
43.0009°
Eccentricity
0.0001492
Mean motion
15.27574249 rev/d
Perigee alt
482.0 km
Apogee alt
484.1 km
Semi-major
6,861.2 km
B*
2.3867e-5
RAAN
137.6042°
Arg perigee
284.8589°
Mean anomaly
75.2097°
Rev number
11,437

§ Raw data

STARLINK-318651 59791U 24093K   26145.04208166  .00000395  00000+0  23867-4 0  99902 59791  43.0009 137.6042 0001492 284.8589  75.2097 15.27574249114374

JSON: /api/v1/satellites/59791 · /tle

For live sub-satellite position, see the globe view (requires WebGL).

§ Visibility from observer

Set your observer location to see the next 7 days of passes ≥ 10°. The values pass through the URL so the page stays shareable.

No JS? Fill the form by hand. The geolocation button needs JavaScript.